SCP
0 0 0 0 0 0 0 0 0 0 0 0 0 0 0 0 0 0 0 0 0 0 0 0 0 0 0 0 0 0 0 0 0 0 0 0 0 0 0 0 0 0 0
0 0 0 0 0 0 0 0 0 0 0 0 0 0 0 0 0 0 0 0 0 0 0 0 0 0 0 0 0 0 0 0 0 0 0 0 0 0 0 0 0 0 0
0 0 0 0 0 0 0 0 0 0 0 0 0 0 0 0 0 0 0 0 0 0 0 0 0 0 0 0 0 0 0 0 0 0 0 0 0 0 0 0 0 0 0
0 0 0 0 0 0 0 0 0 0 0 0 0 0 0 0 0 0 0 0 0 0 0 0 0 0 0 0 0 0 0 0 0 0 0 0 0 0 0 0 0 0 0
0 0 0 0 0 0 0 0 0 0 0 0 0 0 0 0 0 0 0 0 0 0 0 0 0 0 0 0 0 0 0 0 0 0 0 0 0 0 0 0 0 0 0
0 0 0 0 0 0 0 0 0 0 0 0 0 0 0 0 0 0 0 0 0 0 0 0 0 0 0 0 0 0 0 0 0 0 0 0 0 0 0 0 0 0 0
0 0 0 0 0 0 0 0 0 0 0 0 0 0 0 0 0 0 0 0 0 0 0 0 0 0 0 0 0 0 0 0 0 0 0 0 0 0 0 0 0 0 0
0 0 0 0 0 0 0 0 0 0 0 0 0 0 0 0 0 0 0 0 0 0 0 0 0 0 0 0 0 0 0 0 0 0 0 0 0 0 0 0 0 0 0
0 0 0 0 0 0 0 0 0 0 0 0 0 0 0 0 0 0 0 0 0 0 0 0 0 0 0 0 0 0 0 0 0 0 0 0 0 0 0 0 0 0 0
0 0 0 0 0 0 0 0 0 0 0 0 0 0 0 0 0 0 0 0 0 0 0 0 0 0 0 0 0 0 0 0 0 0 0 0 0 0 0 0 0 0 0
0 0 0 0 0 0 0 0 0 0 0 0 0 0 0 0 0 0 0 0 0 0 0 0 0 0 0 0 0 0 0 0 0 0 0 0 0 0 0 0 0 0 0
0 0 0 0 0 0 0 0 0 0 0 0 0 0 0 0 0 0 0 0 0 0 0 0 0 0 0 0 0 0 0 0 0 0 0 0 0 0 0 0 0 0 0
0 0 0 0 0 0 0 0 0 0 0 0 0 0 0 0 0 0 0 0 0 0 0 0 0 0 0 0 0 0 0 0 0 0 0 0 0 0 0 0 0 0 0
0 0 0 0 0 0 0 0 0 0 0 0 0 0 0 0 0 0 0 0 0 0 0 0 0 0 0 0 0 0 0 0 0 0 0 0 0 0 0 0 0 0 0
0 0 0 0 0 0 0 0 0 0 0 0 0 0 0 0 0 0 0 0 0 0 0 0 0 0 0 0 0 0 0 0 0 0 0 0 0 0 0 0 0 0 0
0 0 0 0 0 0 0 0 0 0 0 0 0 0 0 0 0 0 0 0 0 0 0 0 0 0 0 0 0 0 0 0 0 0 0 0 0 0 0 0 0 0 0
0 0 0 0 0 0 0 0 0 0 0 0 0 0 0 0 0 0 0 0 0 0 0 0 0 0 0 0 0 0 0 0 0 0 0 0 0 0 0 0 0 0 0
0 0 0 0 0 0 0 0 0 0 0 0 0 0 0 0 0 0 0 0 0 0 0 0 0 0 0 0 0 0 0 0 0 0 0 0 0 0 0 0 0 0 0
0 0 0 0 0 0 0 0 0 0 0 0 0 0 0 0 0 0 0 0 0 0 0 0 0 0 0 0 0 0 0 0 0 0 0 0 0 0 0 0 0 0 0
0 0 0 0 0 0 0 0 0 0 0 0 0 0 0 0 0 0 0 0 0 0 0 0 0 0 0 0 0 0 0 0 0 0 0 0 0 0 0 0 0 0 0
0 0 0 0 0 0 0 0 0 0 0 0 0 0 0 0 0 0 0 0 0 0 0 0 0 0 0 0 0 0 0 0 0 0 0 0 0 0 0 0 0 0 0
0 0 0 0 0 0 0 0 0 0 0 0 0 0 0 0 0 0 0 0 0 0 0 0 0 0 0 0 0 0 0 0 0 0 0 0 0 0 0 0 0 0 0
0 0 0 0 0 0 0 0 0 0 0 0 0 0 0 0 0 0 0 0 0 0 0 0 0 0 0 0 0 0 0 0 0 0 0 0 0 0 0 0 0 0 0
0 0 0 0 0 0 0 0 0 0 0 0 0 0 0 0 0 0 0 0 0 0 0 0 0 0 0 0 0 0 0 0 0 0 0 0 0 0 0 0 0 0 0
0 0 0 0 0 0 0 0 0 0 0 0 0 0 0 0 0 0 0 0 0 0 0 0 0 0 0 0 0 0 0 0 0 0 0 0 0 0 0 0 0 0 0
0 0 0 0 0 0 0 0 0 0 0 0 0 0 0 0 0 0 0 0 0 0 0 0 0 0 0 0 0 0 0 0 0 0 0 0 0 0 0 0 0 0 0
Wind_Speed
2 3 3 3 4 4 4 5 5 6 7 8 8 9 9 8 7 7 7 8 8 8 7 7 8 7 6 6 6 7 8 8 14 9 5 5 7 8 9 10 10 12 13
1 1 2 3 3 4 4 5 5 6 6 7 8 8 9 9 8 8 9 9 8 9 9 9 9 7 8 7 7 8 8 8 10 14 8 5 9 8 10 11 10 11 10
3 3 3 4 4 5 5 5 6 6 7 7 7 9 9 10 10 10 10 10 9 10 9 10 10 9 10 8 8 9 8 8 9 11 11 6 7 5 7 8 8 8 8
4 4 5 5 5 5 6 6 6 6 7 8 8 9 10 10 11 11 11 11 11 11 11 11 11 11 12 11 10 10 9 10 9 11 10 7 6 5 5 7 7 8 9
4 4 5 5 5 5 5 6 6 7 7 8 9 10 10 9 10 11 11 12 13 14 13 12 13 13 17 16 12 10 9 10 10 10 11 7 7 6 7 5 10 7 10
3 5 4 4 4 5 6 7 8 8 8 9 10 11 12 12 19 25 21 14 14 16 17 16 14 14 16 26 28 26 21 15 13 12 12 13 11 10 8 9 9 8 10
3 3 4 4 5 6 8 9 9 10 11 12 13 13 15 17 26 27 27 20 17 17 18 18 16 15 16 15 21 27 25 27 29 19 17 18 14 9 10 12 12 12 12
2 3 3 5 6 8 9 11 11 11 12 14 15 15 17 19 27 28 29 21 18 19 18 19 20 20 18 20 17 18 18 19 21 17 17 18 14 10 11 14 14 14 9
2 3 4 5 6 8 10 12 12 12 13 14 14 14 15 18 26 29 29 16 16 20 19 19 20 21 27 32 24 20 21 20 25 30 30 28 29 28 18 10 11 11 13
2 4 4 5 5 8 11 12 11 11 14 15 15 14 15 16 24 29 29 14 15 16 16 17 21 23 29 32 23 19 22 21 17 16 20 24 22 22 27 19 14 14 10
3 4 5 6 7 9 10 10 11 12 13 13 16 15 14 16 22 27 28 15 14 16 15 14 15 27 31 32 30 21 25 24 17 16 16 15 14 13 14 15 15 15 16
3 5 6 7 8 8 8 10 10 11 13 13 13 14 12 13 17 22 28 27 26 18 16 15 17 29 33 34 28 27 34 30 16 14 14 15 14 13 12 13 15 16 16
4 6 7 8 7 8 8 10 9 8 9 11 11 12 12 12 14 26 28 30 32 22 17 27 31 35 34 26 28 33 27 17 14 15 15 15 13 11 10 10 12 14 15
5 6 7 7 7 7 7 8 8 9 10 11 12 13 13 13 13 12 13 16 21 21 18 22 31 34 30 26 22 20 15 14 14 15 13 11 9 9 11 11 11 11 12
5 7 7 7 7 7 8 7 10 10 12 15 13 13 15 15 17 28 24 17 16 17 20 15 14 13 13 12 12 13 12 12 14 13 12 11 10 11 11 11 11 11 12
5 6 5 6 6 7 8 10 17 19 24 26 26 24 18 24 32 33 33 33 34 32 23 14 13 12 13 13 12 12 12 12 12 12 11 11 11 11 11 10 11 12 12
6 6 6 6 6 7 8 9 12 17 22 24 24 26 26 29 31 31 31 30 28 26 13 11 12 12 12 12 12 12 12 12 11 11 11 11 10 10 10 11 11 11 11
6 6 6 5 6 6 7 8 9 11 15 15 19 25 27 29 29 28 27 22 14 13 9 11 12 12 12 12 11 11 11 10 10 11 10 10 10 10 10 10 10 11 10
6 5 5 5 6 6 7 8 8 9 10 12 13 16 20 25 25 23 21 9 11 11 11 11 12 12 12 11 10 10 10 10 10 10 9 9 9 9 9 9 9 11 9
5 7 6 5 5 5 6 7 8 8 9 10 10 12 13 13 11 13 11 9 9 10 11 12 12 12 12 10 9 8 8 8 9 9 8 8 7 7 7 8 8 8 8
4 5 6 5 5 5 5 6 7 7 8 9 9 13 20 11 10 12 11 10 10 11 11 12 12 12 11 10 8 8 7 6 6 5 4 3 2 2 3 4 5 6 7
4 4 4 4 4 5 5 5 6 7 8 9 9 11 17 9 8 9 10 10 10 9 10 10 10 10 10 10 9 8 7 6 6 5 3 2 2 3 4 5 6 7 8
3 4 4 4 4 5 5 5 5 6 6 7 8 9 9 8 9 9 10 10 10 10 10 9 10 10 11 10 9 8 7 7 6 5 4 4 5 5 5 6 7 8 8
3 4 4 4 4 4 4 5 5 5 6 7 7 7 8 8 9 10 10 10 10 10 10 9 10 14 17 12 9 9 8 8 8 7 8 7 6 6 6 7 7 8 8
3 3 3 3 3 4 4 5 5 5 5 6 6 7 7 8 8 9 9 9 11 10 12 11 10 11 15 16 12 10 12 14 12 8 7 7 8 8 8 8 8 8 9
3 3 3 3 3 3 4 4 5 5 5 6 6 6 7 7 8 8 8 9 10 10 10 9 13 15 15 13 14 14 13 13 13 12 8 7 8 7 8 8 10 9 9
Wind_Direction
16 12 8 360 359 359 353 344 339 336 337 337 334 332 330 329 330 327 320 317 315 309 302 291 282 276 270 261 250 248 247 242 264 270 240 229 225 229 232 224 222 220 222
258 297 310 317 324 324 315 312 315 315 314 314 315 316 316 317 317 314 310 310 302 299 298 294 287 283 273 267 260 255 252 244 254 269 263 237 230 224 226 225 222 221 219
229 243 265 276 280 281 282 288 293 295 297 299 299 300 302 303 303 302 299 297 292 287 285 284 283 280 277 271 264 262 259 256 250 260 264 244 235 222 227 230 222 219 216
225 235 251 260 263 267 274 279 281 281 284 286 287 286 287 289 291 292 293 291 289 285 280 276 275 271 271 271 269 264 262 261 257 258 261 249 237 217 215 220 224 216 221
231 246 257 266 272 278 283 286 285 284 285 285 289 288 286 286 286 289 290 289 288 287 283 277 272 268 266 269 268 265 259 261 261 260 261 251 233 211 219 202 224 216 224
244 263 278 293 302 307 308 309 307 304 301 297 293 293 292 290 295 298 298 293 290 286 285 283 279 273 268 274 273 270 264 259 258 256 259 253 246 225 219 214 219 214 230
268 293 316 328 327 324 324 321 316 312 308 303 300 298 295 294 297 299 299 296 288 283 282 282 280 277 274 273 275 275 272 266 261 256 255 254 251 231 220 223 220 220 225
312 328 350 351 339 333 329 320 315 311 306 303 302 300 296 295 300 302 301 296 287 281 278 278 278 278 276 276 274 269 265 262 260 259 256 259 255 240 225 228 227 231 233
360 8 13 4 344 331 320 313 312 309 304 300 297 297 296 299 302 302 299 292 285 284 282 279 276 275 276 277 275 270 268 265 266 261 256 256 255 253 243 233 228 225 234
13 358 353 349 330 313 307 305 303 299 295 297 296 296 294 293 296 298 297 288 284 284 283 280 278 276 276 276 270 266 265 264 262 263 261 261 258 255 249 237 227 228 229
13 342 329 323 308 297 293 294 295 294 294 293 292 291 289 288 292 295 295 290 284 284 283 282 279 282 282 281 277 270 267 268 263 256 255 253 249 244 239 235 228 227 229
344 321 307 297 292 291 285 288 288 289 292 291 291 292 290 289 290 292 293 291 289 286 284 283 280 282 281 280 279 274 275 274 266 257 252 248 244 241 236 230 229 229 230
316 296 287 282 275 276 279 288 290 287 288 292 294 295 294 290 288 292 292 291 288 284 276 276 278 281 282 280 278 278 277 271 263 257 251 248 244 240 234 229 228 230 232
287 286 285 283 284 282 281 285 287 289 289 289 290 290 291 290 288 287 282 283 283 280 277 275 276 276 275 272 270 274 268 263 259 257 254 251 247 239 233 227 227 224 227
276 280 286 286 284 289 286 281 286 277 278 289 290 292 297 297 294 298 301 297 292 286 288 279 272 268 262 258 258 258 259 258 258 254 251 249 245 243 238 228 224 220 220
279 284 287 290 289 292 296 298 296 297 299 300 301 301 300 300 305 308 309 308 307 305 301 288 283 278 272 267 264 261 258 258 257 256 251 249 246 240 237 228 221 217 216
258 275 283 289 292 295 297 300 304 308 308 309 311 313 312 313 315 316 317 318 318 319 312 300 292 286 280 273 268 264 261 260 259 257 254 250 246 239 233 226 217 213 210
257 266 270 274 281 286 290 292 293 299 308 311 316 318 322 323 323 326 330 332 324 325 310 304 300 295 288 280 272 268 265 262 260 258 254 251 245 240 232 221 212 205 200
261 264 263 268 273 279 286 290 291 291 295 301 308 317 322 323 329 334 340 330 317 318 316 312 307 302 297 288 278 271 266 263 260 259 254 249 246 239 226 214 205 195 189
257 270 279 278 282 285 287 290 294 298 301 304 308 314 316 324 334 333 335 327 323 319 318 316 315 313 311 302 293 284 275 267 262 258 255 251 241 228 215 202 192 184 181
257 269 280 283 280 282 286 289 294 299 302 305 306 311 330 337 325 324 327 330 329 326 324 322 321 322 322 322 317 309 304 301 297 285 272 260 232 191 165 158 155 151 146
252 261 268 272 277 282 286 288 293 296 300 304 310 317 330 331 322 325 327 328 327 326 325 324 327 329 329 331 333 335 338 340 336 337 351 23 66 91 104 114 120 126 131
247 263 270 271 274 284 291 288 290 293 299 304 309 317 324 327 328 329 329 329 330 331 333 333 334 340 343 343 346 349 351 351 353 6 29 51 62 73 87 101 112 121 128
247 256 266 275 280 285 291 293 294 297 302 305 309 313 318 322 323 325 327 328 330 332 336 338 340 342 348 353 354 356 3 10 10 20 37 55 63 70 80 89 97 108 115
242 251 259 267 277 285 289 292 296 300 302 303 307 312 315 318 321 323 325 328 329 331 336 339 342 344 347 350 358 6 16 24 26 28 37 53 64 71 79 86 92 99 105
243 250 256 261 268 276 281 288 295 300 300 302 303 305 309 313 315 318 321 326 330 329 332 335 339 343 346 352 360 14 25 34 35 35 39 52 64 72 78 85 90 95 99